Masthead Graphic

Historical weather data from Belfast International Airport

The table below shows the weather reports for the last 24 hours taken from the METAR weather bulletins issued by Belfast International Airport. Readings should be at 30 min intervals however they are not always available

Date Time Pressure mb Temp. Wind Kts Wind Dir. Gusts Kts Conditions
26/11/2020 02:20:00 1019 4 3 180 mostly cloudy
mist
26/11/2020 01:50:00 1019 3 2 Variable mostly cloudy
fog
26/11/2020 01:20:00 1019 4 2 Variable mostly cloudy
fog
26/11/2020 00:50:00 1019 3 2 320 mostly cloudy
fog
25/11/2020 23:50:00 1019 5 2 180 overcast
fog
25/11/2020 23:20:00 1018 5 2 240 mostly cloudy
fog
25/11/2020 22:50:00 1018 4 2 240 mostly cloudy
shallow fog
25/11/2020 21:50:00 1017 6 3 300 mostly cloudy
25/11/2020 21:20:00 1017 7 5 300 mostly cloudy
25/11/2020 20:50:00 1016 7 7 250 overcast
25/11/2020 20:20:00 1016 7 8 210 mostly cloudy
light rain
25/11/2020 19:50:00 1016 7 8 220 overcast
25/11/2020 19:20:00 1016 6 10 230 mostly cloudy
25/11/2020 18:50:00 1015 6 8 230 mostly cloudy
25/11/2020 18:20:00 1015 6 6 220 partly cloudy
25/11/2020 17:50:00 1015 6 10 240 mostly cloudy
25/11/2020 17:20:00 1014 7 9 240 scattered clouds
25/11/2020 16:50:00 1014 7 8 240 mostly cloudy
25/11/2020 16:20:00 1014 7 11 250 scattered clouds
25/11/2020 15:50:00 1013 7 6 210 mostly cloudy
25/11/2020 15:20:00 1013 7 8 210 mostly cloudy
25/11/2020 14:50:00 1013 7 8 220 partly cloudy
25/11/2020 14:20:00 1013 7 5 200 mostly cloudy
25/11/2020 13:20:00 1012 6 9 230 scattered clouds
25/11/2020 12:50:00 1012 5 8 230 mostly cloudy
Next Last